User: anonymous   Login
Location: Unspecified
(0.0000°N, 0.0000°E)
Time: 03:51:51
(UTC+02:00)
Language:

CZ-4B DEB - Orbit

View from above orbital plane
View from above orbital plane
View from above satellite
View from above satellite

Ground track
Ground track

The orbit data is extracted from the following two-line orbital elements,

1 33411U 08053D   15242.12034203  .00014121  00000-0  49976-3 0  9994
2 33411 097.4829 263.5675 0008585 156.5598 203.6034 15.29224080374940
Epoch (UTC): 30 August 2015 02:53:17
Eccentricity: 0.0008585
inclination: 97.4829°
perigee height: 472 km
apogee height: 484 km
right ascension of ascending node: 263.5675°
argument of perigee: 156.5598°
revolutions per day: 15.29224080
mean anomaly at epoch: 203.6034°
orbit number at epoch: 37494

The dashed part of the orbit path shows where the satellite is in the earth's shadow,  

DLR